FW0256 Weather Reports


time (UTC)temp
C
wind
direction
speed
KPH
gust
KPH
rain 1hr
cm
rain 24hr
cm
rain mn
cm
humidity
%
barometer
mb
20260510234535 4 0 0.0 1.6 0.00 0.00 0.00 80 1013.1
20260510234010 4 0 0.0 1.6 0.00 0.00 0.00 80 1013.2
20260510233510 4 0 0.0 1.6 0.00 0.00 0.00 80 1013.3
20260510233038 4 0 0.0 0.0 0.00 0.00 0.00 79 1013.3
20260510232509 4 0 0.0 0.0 0.00 0.00 0.00 79 1013.5
20260510232014 4 0 0.0 1.6 0.00 0.00 0.00 78 1013.5
20260510231530 5 0 0.0 3.2 0.00 0.00 0.00 78 1013.6
20260510231010 5 360 0.0 3.2 0.00 0.00 0.00 78 1013.6
20260510230508 5 0 0.0 3.2 0.00 0.00 0.00 78 1013.8
20260510230033 5 360 0.0 3.2 0.00 0.00 0.00 78 1013.9
20260510225508 5 360 0.0 4.8 0.00 0.00 0.00 78 1013.9
20260510225010 5 360 0.0 4.8 0.00 0.00 0.00 78 1014.0
20260510224531 5 360 1.6 3.2 0.00 0.00 0.00 77 1014.0
20260510224011 5 0 0.0 3.2 0.00 0.00 0.00 76 1014.1
20260510223509 5 360 0.0 3.2 0.00 0.00 0.00 76 1014.1
20260510223029 5 0 0.0 3.2 0.00 0.00 0.00 75 1014.2
20260510222514 5 0 0.0 1.6 0.00 0.00 0.00 75 1014.2
20260510222013 5 0 0.0 1.6 0.00 0.00 0.00 75 1014.2
20260510221536 5 0 0.0 0.0 0.00 0.00 0.00 74 1014.3
20260510221007 5 0 0.0 0.0 0.00 0.00 0.00 74 1014.3
20260510220509 6 0 0.0 0.0 0.00 0.00 0.00 74 1014.3
20260510220031 6 0 0.0 0.0 0.00 0.00 0.00 73 1014.3
20260510215510 6 0 0.0 0.0 0.00 0.00 0.00 73 1014.4
20260510215013 6 0 0.0 0.0 0.00 0.00 0.00 72 1014.4
20260510214533 6 0 0.0 0.0 0.00 0.00 0.00 71 1014.5
20260510214012 6 0 0.0 0.0 0.00 0.00 0.00 70 1014.5
20260510213515 6 0 0.0 0.0 0.00 0.00 0.00 70 1014.7
20260510213028 6 0 0.0 0.0 0.00 0.00 0.00 70 1014.7
20260510212511 6 0 0.0 0.0 0.00 0.00 0.00 69 1014.7
20260510212012 6 0 0.0 0.0 0.00 0.00 0.00 69 1014.7
20260510211532 7 0 0.0 0.0 0.00 0.00 0.00 68 1014.7
20260510211012 7 0 0.0 0.0 0.00 0.00 0.00 67 1014.7
20260510210509 7 0 0.0 4.8 0.00 0.00 0.00 67 1014.7
20260510210030 7 0 0.0 4.8 0.00 0.00 0.00 66 1014.8
20260510205510 7 0 0.0 4.8 0.00 0.00 0.00 66 1014.7
20260510205011 7 0 0.0 3.2 0.00 0.00 0.00 65 1014.7
20260510204536 7 0 0.0 3.2 0.00 0.00 0.00 65 1014.6
20260510204011 7 0 0.0 4.8 0.00 0.00 0.00 64 1014.7
20260510203509 7 0 0.0 4.8 0.00 0.00 0.00 64 1014.7
20260510203030 8 0 1.6 4.8 0.00 0.00 0.00 64 1014.8
20260510202511 8 360 0.0 4.8 0.00 0.00 0.00 63 1014.8
20260510202012 8 360 0.0 3.2 0.00 0.00 0.00 63 1014.9
20260510201529 8 360 0.0 3.2 0.00 0.00 0.00 62 1014.9
20260510201013 8 360 0.0 3.2 0.00 0.00 0.00 61 1014.9
20260510200509 8 0 0.0 4.8 0.00 0.00 0.00 61 1014.9
20260510200028 8 0 0.0 4.8 0.00 0.00 0.00 61 1014.8
20260510195509 8 360 0.0 3.2 0.00 0.00 0.00 60 1014.9
20260510195011 8 360 0.0 4.8 0.00 0.00 0.00 60 1014.9
20260510194546 9 0 1.6 8.0 0.00 0.00 0.00 60 1015.0
20260510194010 9 360 1.6 8.0 0.00 0.00 0.00 59 1015.0
20260510193510 9 360 3.2 6.4 0.00 0.00 0.00 59 1015.0
20260510193030 9 360 1.6 8.0 0.00 0.00 0.00 59 1015.1
20260510192510 10 360 3.2 8.0 0.00 0.00 0.00 58 1015.1
20260510192011 10 360 3.2 8.0 0.00 0.00 0.00 58 1015.2
20260510191530 10 360 3.2 8.0 0.00 0.00 0.00 57 1015.3
20260510191010 10 360 3.2 8.0 0.00 0.00 0.00 57 1015.2
20260510190510 10 360 3.2 8.0 0.00 0.00 0.00 57 1015.2
20260510190044 10 360 3.2 8.0 0.00 0.00 0.00 56 1015.3
20260510185510 10 360 1.6 12.9 0.00 0.00 0.00 56 1015.3
20260510185012 10 360 4.8 12.9 0.00 0.00 0.00 56 1015.3
20260510184530 10 360 3.2 17.7 0.00 0.00 0.00 56 1015.3
20260510184011 10 360 4.8 17.7 0.00 0.00 0.00 55 1015.3
20260510183510 10 360 8.0 17.7 0.00 0.00 0.00 54 1015.3
20260510183030 11 360 4.8 14.5 0.00 0.00 0.00 54 1015.4
20260510182515 11 360 3.2 16.1 0.00 0.00 0.00 54 1015.4
20260510182009 11 360 4.8 16.1 0.00 0.00 0.00 53 1015.4
20260510181531 11 360 8.0 22.5 0.00 0.00 0.00 52 1015.4
20260510181010 11 360 8.0 22.5 0.00 0.00 0.00 51 1015.4
20260510180510 11 360 6.4 17.7 0.00 0.00 0.00 51 1015.4
20260510180032 11 360 4.8 16.1 0.00 0.00 0.00 51 1015.5
20260510175508 11 360 6.4 16.1 0.00 0.00 0.00 51 1015.5
20260510175009 11 360 4.8 14.5 0.00 0.00 0.00 52 1015.5
20260510174530 11 360 4.8 14.5 0.00 0.00 0.00 53 1015.5
20260510174012 11 360 4.8 14.5 0.00 0.00 0.00 52 1015.5
20260510173511 11 360 6.4 16.1 0.00 0.00 0.00 51 1015.6
20260510173030 11 360 6.4 16.1 0.00 0.00 0.00 50 1015.5
20260510172512 11 360 6.4 16.1 0.00 0.00 0.00 50 1015.4
20260510172009 11 360 4.8 16.1 0.00 0.00 0.00 50 1015.5
20260510171530 11 360 6.4 19.3 0.00 0.00 0.00 50 1015.6
20260510171011 12 360 8.0 19.3 0.00 0.00 0.00 49 1015.6
20260510170511 12 360 4.8 17.7 0.00 0.00 0.00 50 1015.7
20260510170029 12 360 8.0 17.7 0.00 0.00 0.00 49 1015.9
20260510165511 12 360 8.0 17.7 0.00 0.00 0.00 49 1015.7
20260510165011 12 360 6.4 17.7 0.00 0.00 0.00 51 1015.8
20260510164528 12 360 8.0 17.7 0.00 0.00 0.00 50 1015.9
20260510164009 12 360 6.4 22.5 0.00 0.00 0.00 49 1015.9
20260510163512 12 360 6.4 22.5 0.00 0.00 0.00 49 1016.1
20260510163027 12 360 11.3 22.5 0.00 0.00 0.00 49 1016.2
20260510162511 12 360 4.8 20.9 0.00 0.00 0.00 48 1016.2
20260510162010 12 360 11.3 20.9 0.00 0.00 0.00 47 1016.3
20260510161528 12 360 6.4 16.1 0.00 0.00 0.00 48 1016.3
20260510161014 12 360 4.8 17.7 0.00 0.00 0.00 49 1016.3
20260510160510 13 360 9.7 19.3 0.00 0.00 0.00 48 1016.4
20260510160035 13 360 8.0 19.3 0.00 0.00 0.00 47 1016.4
20260510155509 13 360 9.7 19.3 0.00 0.00 0.00 46 1016.5
20260510155011 13 360 6.4 17.7 0.00 0.00 0.00 49 1016.4
20260510154530 12 360 8.0 20.9 0.00 0.00 0.00 49 1016.5
20260510154013 12 360 9.7 20.9 0.00 0.00 0.00 47 1016.6
20260510153508 13 360 9.7 19.3 0.00 0.00 0.00 49 1016.6
20260510153032 13 360 6.4 17.7 0.00 0.00 0.00 49 1016.6
20260510152511 13 360 6.4 17.7 0.00 0.00 0.00 49 1016.7
20260510152011 13 360 6.4 17.7 0.00 0.00 0.00 51 1016.7
20260510151530 13 360 6.4 20.9 0.00 0.00 0.00 51 1016.8
20260510151010 12 360 6.4 20.9 0.00 0.00 0.00 52 1016.9
20260510150508 13 360 11.3 20.9 0.00 0.00 0.00 50 1016.9
20260510150029 13 360 6.4 19.3 0.00 0.00 0.00 51 1016.8
20260510145514 12 360 8.0 19.3 0.00 0.00 0.00 51 1017.0
20260510145010 13 360 9.7 19.3 0.00 0.00 0.00 50 1017.0
20260510144534 13 360 8.0 19.3 0.00 0.00 0.00 50 1017.0
20260510144011 13 360 9.7 32.2 0.00 0.00 0.00 50 1017.2
20260510143511 13 360 11.3 32.2 0.00 0.00 0.00 49 1017.2
20260510143028 13 360 9.7 32.2 0.00 0.00 0.00 50 1017.2
20260510142511 13 360 6.4 22.5 0.00 0.00 0.00 49 1017.3
20260510142015 13 360 11.3 22.5 0.00 0.00 0.00 48 1017.5
20260510141530 13 360 8.0 22.5 0.00 0.00 0.00 49 1017.3
20260510141012 13 360 8.0 22.5 0.00 0.00 0.00 49 1017.4
20260510140508 13 360 11.3 22.5 0.00 0.00 0.00 47 1017.5
20260510140030 13 360 6.4 17.7 0.00 0.00 0.00 51 1017.6
20260510135511 13 360 6.4 17.7 0.00 0.00 0.00 51 1017.5
20260510135009 13 360 6.4 20.9 0.00 0.00 0.00 51 1017.6
20260510134528 13 360 9.7 20.9 0.00 0.00 0.00 51 1017.6
20260510134008 13 360 4.8 19.3 0.00 0.00 0.00 51 1017.5
20260510133512 13 360 6.4 20.9 0.00 0.00 0.00 52 1017.6
20260510133028 12 360 9.7 22.5 0.00 0.00 0.00 52 1017.6
20260510132513 13 360 9.7 22.5 0.00 0.00 0.00 53 1017.6
20260510132009 13 360 8.0 22.5 0.00 0.00 0.00 54 1017.7
20260510131527 13 360 9.7 20.9 0.00 0.00 0.00 53 1017.7
20260510131015 12 360 8.0 24.1 0.00 0.00 0.00 53 1017.6
20260510130511 12 360 8.0 24.1 0.00 0.00 0.00 54 1017.8
20260510130029 12 360 12.9 24.1 0.00 0.00 0.00 54 1017.9
20260510125510 12 360 8.0 19.3 0.00 0.00 0.00 54 1017.9
20260510125010 13 360 9.7 16.1 0.00 0.00 0.00 55 1017.9
20260510124530 12 360 6.4 19.3 0.00 0.00 0.00 55 1017.9
20260510124021 12 360 8.0 22.5 0.00 0.00 0.00 55 1017.9
20260510123512 12 360 11.3 22.5 0.00 0.00 0.00 54 1018.2
20260510123031 12 360 8.0 20.9 0.00 0.00 0.00 56 1018.1
20260510122511 12 360 6.4 24.1 0.00 0.00 0.00 56 1018.1
20260510122012 12 360 11.3 24.1 0.00 0.00 0.00 56 1018.2
20260510121531 12 360 11.3 24.1 0.00 0.00 0.00 55 1018.5
20260510121010 12 360 6.4 16.1 0.00 0.00 0.00 57 1018.5
20260510120509 12 360 8.0 27.4 0.00 0.00 0.00 57 1018.5
20260510120030 12 360 8.0 27.4 0.00 0.00 0.00 57 1018.5
20260510115509 12 360 11.3 27.4 0.00 0.00 0.00 57 1018.6
20260510115014 11 94 11.3 20.9 0.00 0.00 0.00 60 1018.7
20260510114554 11 360 8.0 19.3 0.00 0.00 0.00 59 1018.9
20260510114011 11 360 6.4 19.3 0.00 0.00 0.00 60 1018.9
20260510113509 11 360 8.0 19.3 0.00 0.00 0.00 62 1018.9
20260510113040 11 360 8.0 22.5 0.00 0.00 0.00 62 1019.1
20260510112509 11 360 6.4 22.5 0.00 0.00 0.00 62 1019.1
20260510112013 11 360 8.0 20.9 0.00 0.00 0.00 62 1019.2
20260510111532 11 360 8.0 17.7 0.00 0.00 0.00 61 1019.2
20260510111011 11 360 8.0 20.9 0.00 0.00 0.00 63 1019.2
20260510110509 11 360 6.4 22.5 0.00 0.00 0.00 64 1019.3
20260510110036 11 360 9.7 22.5 0.00 0.00 0.00 64 1019.4
20260510105509 11 360 8.0 20.9 0.00 0.00 0.00 63 1019.4
20260510105009 11 360 8.0 20.9 0.00 0.00 0.00 63 1019.4
20260510104528 11 360 6.4 24.1 0.00 0.00 0.00 63 1019.5
20260510104010 11 360 9.7 24.1 0.00 0.00 0.00 63 1019.5
20260510103511 11 360 11.3 32.2 0.00 0.00 0.00 63 1019.6
20260510103028 11 360 11.3 32.2 0.00 0.00 0.00 64 1019.5
20260510102510 11 360 11.3 22.5 0.00 0.00 0.00 67 1019.5
20260510102016 10 360 11.3 22.5 0.00 0.00 0.00 68 1019.6
20260510101531 10 360 8.0 25.7 0.00 0.00 0.00 69 1019.8
20260510101008 10 360 8.0 25.7 0.00 0.00 0.00 69 1019.8
20260510100510 10 360 8.0 22.5 0.00 0.00 0.00 71 1019.8
20260510100033 10 360 8.0 20.9 0.00 0.00 0.00 71 1019.9
20260510095512 10 360 12.9 25.7 0.00 0.00 0.00 71 1019.9
20260510095008 9 360 9.7 25.7 0.00 0.00 0.00 72 1019.9
20260510094532 9 73 9.7 25.7 0.00 0.00 0.00 72 1019.9
20260510094012 9 360 8.0 20.9 0.00 0.00 0.00 72 1020.0
20260510093516 9 360 9.7 20.9 0.00 0.00 0.00 72 1020.0
20260510093028 9 360 9.7 19.3 0.00 0.00 0.00 72 1020.1
20260510092511 9 360 8.0 19.3 0.00 0.00 0.00 73 1020.1
20260510092014 9 360 9.7 19.3 0.00 0.00 0.00 73 1020.1
20260510091527 9 360 6.4 19.3 0.00 0.00 0.00 74 1020.2
20260510091010 8 360 4.8 27.4 0.00 0.00 0.00 74 1020.2
20260510090511 8 360 8.0 30.6 0.00 0.00 0.00 75 1020.3
20260510090031 8 360 12.9 30.6 0.00 0.00 0.00 74 1020.2
20260510085512 8 360 11.3 27.4 0.00 0.00 0.00 74 1020.1
20260510085012 8 360 8.0 24.1 0.00 0.00 0.00 74 1020.2
20260510084530 8 360 9.7 24.1 0.00 0.00 0.00 74 1020.2
20260510084008 8 360 9.7 24.1 0.00 0.00 0.00 74 1020.2
20260510083511 8 360 9.7 22.5 0.00 0.00 0.00 75 1020.2
20260510083028 8 360 11.3 20.9 0.00 0.00 0.00 75 1020.0
20260510082509 8 360 9.7 20.9 0.00 0.00 0.00 75 1020.1
20260510082011 8 360 9.7 20.9 0.00 0.00 0.00 75 1020.0
20260510081528 8 360 9.7 22.5 0.00 0.00 0.00 76 1020.0
20260510081011 8 360 9.7 22.5 0.00 0.00 0.00 76 1020.1
20260510080511 8 360 11.3 22.5 0.00 0.00 0.00 76 1019.9
20260510080030 8 360 9.7 24.1 0.00 0.00 0.00 77 1020.0
20260510075508 8 360 11.3 24.1 0.00 0.00 0.00 77 1020.0
20260510075008 8 360 8.0 20.9 0.00 0.00 0.00 78 1020.0
20260510074536 8 360 11.3 20.9 0.00 0.00 0.00 78 1019.9
20260510074011 8 360 9.7 20.9 0.00 0.00 0.00 78 1020.0
20260510073511 8 360 9.7 22.5 0.00 0.00 0.00 79 1020.0
20260510073031 8 360 9.7 22.5 0.00 0.00 0.00 79 1019.9
20260510072508 8 360 12.9 22.5 0.00 0.00 0.00 79 1020.0
20260510072011 7 360 11.3 22.5 0.00 0.00 0.00 80 1019.9
20260510071532 7 360 8.0 22.5 0.00 0.00 0.00 80 1019.9
20260510071011 7 360 9.7 22.5 0.00 0.00 0.00 81 1020.0
20260510070510 7 360 11.3 20.9 0.00 0.00 0.00 81 1019.9
20260510070033 7 360 9.7 20.9 0.00 0.00 0.00 81 1020.0
20260510065508 7 360 8.0 19.3 0.00 0.00 0.00 82 1020.0
20260510065008 7 360 9.7 19.3 0.00 0.00 0.00 82 1020.0
20260510064529 7 360 9.7 20.9 0.00 0.00 0.00 83 1020.0
20260510064007 7 360 9.7 20.9 0.00 0.00 0.00 83 1020.0
20260510063513 7 360 11.3 20.9 0.00 0.00 0.00 83 1020.1
20260510063027 7 360 6.4 17.7 0.00 0.00 0.00 83 1019.9
20260510062510 7 360 8.0 17.7 0.00 0.00 0.00 84 1019.9
20260510062011 7 360 9.7 22.5 0.00 0.00 0.00 84 1019.9
20260510061530 7 360 8.0 22.5 0.00 0.00 0.00 84 1020.0
20260510061011 7 360 6.4 19.3 0.00 0.00 0.00 84 1020.0
20260510060543 7 360 9.7 19.3 0.00 0.00 0.00 84 1019.8
20260510060033 7 360 8.0 20.9 0.00 0.00 0.00 84 1019.8
20260510055515 7 360 9.7 20.9 0.00 0.00 0.00 84 1019.8
20260510055012 7 360 11.3 20.9 0.00 0.00 0.00 85 1019.8
20260510054532 7 360 9.7 20.9 0.00 0.00 0.00 85 1019.8
20260510054008 7 360 8.0 20.9 0.00 0.00 0.00 85 1019.9
20260510053510 7 360 11.3 20.9 0.00 0.00 0.00 85 1019.9
20260510053028 7 360 9.7 19.3 0.00 0.00 0.00 86 1019.9
20260510052509 7 360 6.4 17.7 0.00 0.00 0.00 86 1019.9
20260510052008 7 360 6.4 17.7 0.00 0.00 0.00 86 1020.1
20260510051531 7 360 6.4 19.3 0.00 0.00 0.00 86 1020.1
20260510051008 7 360 9.7 19.3 0.00 0.00 0.00 86 1020.0
20260510050512 7 360 8.0 17.7 0.00 0.00 0.00 86 1020.1
20260510050028 7 360 9.7 17.7 0.00 0.00 0.00 86 1020.0
20260510045511 7 360 8.0 17.7 0.00 0.00 0.00 86 1019.9
20260510045013 7 360 8.0 17.7 0.00 0.00 0.00 86 1019.9
20260510044528 7 360 6.4 22.5 0.00 0.00 0.00 86 1019.8
20260510044008 7 360 9.7 22.5 0.00 0.00 0.00 86 1019.8
20260510043510 7 360 6.4 14.5 0.00 0.00 0.00 87 1019.8
20260510043031 7 360 4.8 17.7 0.00 0.00 0.00 87 1019.8
20260510042512 7 360 6.4 20.9 0.00 0.00 0.00 87 1019.9
20260510042010 7 360 9.7 20.9 0.00 0.00 0.00 87 1019.9
20260510041541 7 360 8.0 20.9 0.00 0.00 0.00 87 1019.9
20260510041009 7 360 8.0 17.7 0.00 0.00 0.00 87 1019.9
20260510040510 7 360 8.0 17.7 0.00 0.00 0.00 88 1020.0
20260510040029 7 360 4.8 16.1 0.00 0.00 0.00 88 1019.9
20260510035510 7 360 4.8 16.1 0.00 0.00 0.00 88 1020.0
20260510035010 7 360 4.8 19.3 0.00 0.00 0.00 88 1019.9
20260510034530 7 360 4.8 19.3 0.00 0.00 0.00 88 1019.8
20260510034009 7 360 6.4 19.3 0.00 0.00 0.00 88 1019.8
20260510033512 7 360 4.8 20.9 0.00 0.00 0.00 88 1019.9
20260510033029 7 360 9.7 20.9 0.00 0.00 0.00 88 1019.9
20260510032510 8 360 8.0 17.7 0.00 0.00 0.00 88 1019.8
20260510032012 8 360 6.4 17.7 0.00 0.00 0.00 89 1019.9
20260510031534 8 360 8.0 16.1 0.00 0.00 0.00 89 1020.0
20260510031011 8 360 8.0 17.7 0.00 0.00 0.00 89 1020.0
20260510030509 8 360 8.0 17.7 0.00 0.00 0.00 90 1020.1
20260510030028 8 360 6.4 14.5 0.00 0.00 0.00 90 1020.1
20260510025509 8 360 4.8 20.9 0.00 0.00 0.00 90 1020.2
20260510025010 7 360 8.0 20.9 0.00 0.00 0.00 90 1020.2
20260510024528 8 360 6.4 14.5 0.00 0.00 0.00 90 1020.2
20260510024009 8 360 6.4 16.1 0.00 0.00 0.00 91 1020.3
20260510023510 8 360 4.8 16.1 0.00 0.00 0.00 91 1020.3
20260510023028 8 360 8.0 16.1 0.00 0.00 0.00 91 1020.3
20260510022513 8 360 3.2 20.9 0.00 0.00 0.00 91 1020.5
20260510022012 8 360 4.8 20.9 0.00 0.00 0.00 91 1020.5
20260510021536 8 360 8.0 20.9 0.00 0.00 0.00 91 1020.4
20260510021012 8 360 9.7 19.3 0.00 0.00 0.00 91 1020.3
20260510020512 8 360 8.0 19.3 0.00 0.00 0.00 90 1020.3
20260510020031 8 360 6.4 19.3 0.00 0.00 0.00 90 1020.3
20260510015510 8 360 6.4 19.3 0.00 0.00 0.00 90 1020.5
20260510015009 8 360 4.8 17.7 0.00 0.00 0.00 90 1020.5
20260510014532 8 360 8.0 19.3 0.00 0.00 0.00 91 1020.5
20260510014011 8 360 9.7 19.3 0.00 0.00 0.00 91 1020.4
20260510013511 8 360 6.4 16.1 0.00 0.00 0.00 91 1020.3
20260510013032 8 360 4.8 19.3 0.00 0.00 0.00 91 1020.3
20260510012510 8 360 6.4 19.3 0.00 0.00 0.00 91 1020.3
20260510012011 8 360 8.0 19.3 0.00 0.00 0.00 91 1020.2
20260510011530 8 360 8.0 19.3 0.00 0.00 0.00 91 1020.1
20260510011010 8 360 8.0 16.1 0.00 0.00 0.00 91 1020.1
20260510010508 8 360 4.8 20.9 0.00 0.00 0.00 91 1020.1
20260510010028 8 360 8.0 20.9 0.00 0.00 0.00 90 1020.1
20260510005511 8 360 8.0 25.7 0.00 0.00 0.00 90 1020.1
20260510005009 8 360 8.0 25.7 0.00 0.00 0.00 90 1020.0
20260510004529 8 360 9.7 20.9 0.00 0.00 0.00 90 1019.9
20260510004014 8 360 8.0 24.1 0.00 0.00 0.00 89 1020.0
20260510003510 8 360 9.7 24.1 0.00 0.00 0.00 89 1020.1
20260510003028 8 360 6.4 17.7 0.00 0.00 0.00 88 1020.2
20260510002510 8 360 6.4 19.3 0.00 0.00 0.00 88 1020.1
20260510002010 8 360 6.4 19.3 0.00 0.00 0.00 88 1020.2
20260510001539 9 360 6.4 19.3 0.00 0.00 0.00 87 1020.2
20260510001010 9 24 3.2 19.3 0.00 0.00 0.00 87 1020.4
20260510000508 9 98 4.8 25.7 0.00 0.00 0.00 86 1020.2
20260510000028 9 360 9.7 25.7 0.00 0.00 0.00 86 1020.3
20260509235508 9 360 9.7 20.9 0.00 0.00 0.00 86 1020.4
20260509235014 9 360 9.7 20.9 0.00 0.00 0.00 86 1020.3